TimeEST,TemperatureF,Dew PointF,Humidity,Sea Level PressureIn,VisibilityMPH,Wind Direction,Wind SpeedMPH,Gust SpeedMPH,PrecipitationIn,Events,Conditions,WindDirDegrees,DateUTC
12:54 AM,43.0,28.0,56,30.15,10.0,WNW,8.1,-,N/A,,Mostly Cloudy,290,2013-01-07 05:54:00
1:54 AM,41.0,28.0,60,30.16,10.0,West,5.8,-,N/A,,Mostly Cloudy,280,2013-01-07 06:54:00
2:54 AM,41.0,28.0,60,30.18,10.0,WNW,6.9,-,N/A,,Mostly Cloudy,290,2013-01-07 07:54:00
3:54 AM,42.1,27.0,55,30.19,10.0,WNW,13.8,19.6,N/A,,Scattered Clouds,290,2013-01-07 08:54:00
4:54 AM,41.0,26.1,55,30.23,10.0,WNW,6.9,-,N/A,,Scattered Clouds,290,2013-01-07 09:54:00
5:54 AM,42.1,27.0,55,30.26,10.0,WNW,6.9,-,N/A,,Overcast,300,2013-01-07 10:54:00
6:54 AM,39.0,26.1,60,30.29,10.0,WNW,6.9,-,N/A,,Scattered Clouds,290,2013-01-07 11:54:00
7:54 AM,39.9,26.1,58,30.32,10.0,WNW,9.2,-,N/A,,Scattered Clouds,300,2013-01-07 12:54:00
8:54 AM,42.1,26.1,53,30.36,10.0,West,10.4,-,N/A,,Scattered Clouds,280,2013-01-07 13:54:00
9:54 AM,44.1,25.0,47,30.40,10.0,WNW,12.7,20.7,N/A,,Scattered Clouds,290,2013-01-07 14:54:00
10:54 AM,45.0,25.0,46,30.41,10.0,WNW,12.7,19.6,N/A,,Scattered Clouds,300,2013-01-07 15:54:00
11:54 AM,46.9,25.0,42,30.40,10.0,NW,10.4,-,N/A,,Mostly Cloudy,310,2013-01-07 16:54:00
12:54 PM,46.0,24.1,42,30.39,10.0,NW,9.2,-,N/A,,Mostly Cloudy,320,2013-01-07 17:54:00
1:54 PM,46.9,24.1,41,30.39,10.0,NNW,8.1,23.0,N/A,,Scattered Clouds,340,2013-01-07 18:54:00
2:54 PM,46.0,24.1,42,30.40,10.0,Variable,4.6,-,N/A,,Partly Cloudy,0,2013-01-07 19:54:00
3:54 PM,44.1,24.1,45,30.41,10.0,NW,5.8,-,N/A,,Scattered Clouds,310,2013-01-07 20:54:00
4:54 PM,42.1,24.1,49,30.42,10.0,NNW,4.6,-,N/A,,Partly Cloudy,340,2013-01-07 21:54:00
5:54 PM,39.2,24.8,56,30.42,10.0,Calm,Calm,-,N/A,,Clear,0,2013-01-07 22:54:00
6:54 PM,34.0,24.1,67,30.44,10.0,Calm,Calm,-,N/A,,Clear,0,2013-01-07 23:54:00
7:54 PM,32.0,24.1,73,30.43,10.0,Calm,Calm,-,N/A,,Clear,0,2013-01-08 00:54:00
8:54 PM,30.0,23.0,75,30.43,10.0,Calm,Calm,-,N/A,,Clear,0,2013-01-08 01:54:00
9:54 PM,28.0,23.0,81,30.43,8.0,Calm,Calm,-,N/A,,Clear,0,2013-01-08 02:54:00
10:54 PM,28.0,23.0,81,30.43,8.0,Calm,Calm,-,N/A,,Clear,0,2013-01-08 03:54:00
11:54 PM,28.0,23.0,81,30.42,10.0,Calm,Calm,-,N/A,,Clear,0,2013-01-08 04:54:00